Simultaneous Nadir Overpasses (SNOs) Predictions

Prediction of SNOs between METOP-B and NOAA-19 Satellite Orbit:

Table of predicted SNOs for the next 14.0 days since TLE Epoch: 7/7/2013
Index Date (METOP-B) Time (METOP-B) Lat,Lon (METOP-B) SZA (METOP-B ) Date (NOAA-19) Time (NOAA-19) Lat,Lon (NOAA-19) SZA (NOAA-19 ) Distance(km) Time Diff (sec)
1 07/14/2013 03:24:45 -73.64, -57.00 127.96 07/14/2013 03:23:33 -73.69, -58.23 127.84 38.96 72
2 07/14/2013 04:15:29 73.41, 109.80 51.84 07/14/2013 04:14:25 73.41, 109.70 51.86 3.32 64
3 07/14/2013 05:06:12 -73.37, -82.96 128.19 07/14/2013 05:05:31 -73.37, -83.00 128.18 1.37 41
4 07/14/2013 05:56:52 73.34, 84.30 51.79 07/14/2013 05:56:28 73.33, 84.35 51.79 1.59 24
5 07/14/2013 06:47:35 -73.30,-108.46 128.24 07/14/2013 06:47:34 -73.30,-108.35 128.25 3.41 1
6 07/14/2013 07:38:14 73.31, 58.91 51.78 07/14/2013 07:38:32 73.31, 58.88 51.77 1.02 18
7 07/14/2013 08:28:57 -73.28,-133.85 128.25 07/14/2013 08:29:38 -73.27,-133.82 128.26 1.02 41
8 07/14/2013 09:19:36 73.29, 33.52 51.77 07/14/2013 09:20:36 73.29, 33.42 51.76 3.35 60
9 07/14/2013 10:10:25 -72.95,-159.89 128.53 07/14/2013 10:11:36 -72.95,-158.62 128.60 41.41 71




NCC Satellite Simultaneous Nadir Overpasses (SNOs) Prediction Service
